STARLINK-3804, 52270

Orbit data source: Space-Track

STARLINK-3804, 52270 is a payload satellite owned by SpaceX/Seattle (US) in LEO that was launched on Thu, 21 Apr 2022 UTC via an FALCON 9 launch vehicle from the Air Force Eastern Test Range (AFETR). Payload-class satellites include a variety of spacecraft equipped with specific instruments for various scientific and technological missions. These include communications satellites like Starlink; space stations such as the ISS; scientific satellites like the Hubble; Earth observation satellites from companies like Planet Labs, Umbra, and HawkEye 360; GPS; miniature CubeSats for education and research; and military/defense satellites.

Loading next visibility...
Identifier
52270, 2022-041K
Orbit
LEO
Country
Flag of USUS
Related business
Manufacturer
SpaceX/Seattle
Mission
Operational Commercial Communications
Bus & Motor
STARLINK, Unknown motor
Mass
297 kg wet, ~275 kg dry
Launch date (UTC)
2022-04-21 (4 years ago)
Launch vehicle
FALCON 9
Launch site
Air Force Eastern Test Range (AFETR)
Object type
Payload
Rocket body
Debris
Shape & HBR
Box + 1 Pan, 10.1 m
Radar Cross Section
11.087 m², Large (>1 m²)

Expand to show TLE details & history
Last TLE update: 20 hours ago

TLE from 20 hours ago
0 STARLINK-3804
1 52270U 22041K   26175.20020522  .00000472  00000-0  47783-4 0  9995
2 52270  53.1604 350.8677 0001350  95.7819 264.3326 15.08833538230444
Epoch: 2026-06-24T04:48Z
TLE epoch observation values (Epoch: 2026-06-24T04:48:17.731Z)
Latitude
-0.00003°
Longitude
6.43297°
Altitude
540.747 km
Speed
7.593 km/s
True Right ascension
23h 23m 28s
True Declination
0° 00' 00"
Sunlit
Object was in daylight at epoch
Visualization orbit readout
Latitude
Unknown
Longitude
Unknown
Altitude
Unknown
Speed
Unknown
Apparent Right ascension
Unknown
Apparent Declination
Unknown
Sunlit
N/A
Visualization observer readout
Local Sidereal Time
12:01:47
Azimuth
Unknown
Elevation
Unknown
Doppler factor
Unknown
Orbital elements
Apogee altitude
540.951 km
Perigee altitude
539.083 km
Semi-major axis
6,918.154 km
Eccentricity
0.00014
Inclination
53.1604°
RAAN
350.8677°
Arg. of periapsis
95.7819°
True anomaly
264.31721°
Mean anomaly
264.3326°
Eccentric anomaly
264.3249°
Mean motion
3.77188 °/min
Orbital period
95.44 mins
BSTAR
0.000047783
Loading maneuver chart data...
Computing Atmospheric mass density...
Loading historical data...
Loading historical data...
Loading historical data...
Loading historical data...
Loading historical data...
Loading historical data...
Loading historical data...

Documentation

Showing up to 5 results
|